Location: Asheville, NC
(35.6000°N, 82.5500°W)
Time: 07:11:27
(UTC-04:00)

Vanguard 2 - Pass Details

Date: 07 December 2017
Orbit: 553 x 2939 km, 32.9° (Epoch: 23 June)

Event Time Altitude Azimuth Distance (km) Brightness Sun altitude
Rises 22:51:17 0° 269° (W) 2,829 - -66.5°
Reaches altitude 10° 22:53:33 10° 256° (WSW) 2,051 - -66.9°
Maximum altitude 22:57:29 27° 198° (SSW) 1,476 - -67.6°
Drops below altitude 10° 23:02:51 10° 142° (SE) 2,865 - -68.5°
Sets 23:06:40 0° 132° (SE) 4,233 - -69.2°
